DW5315 Weather Reports


Display with metric or nautical units.
time (UTC)temp
F
wind
direction
speed
MPH
gust
MPH
rain 1hr
in
rain 24hr
in
rain mn
in
humidity
%
barometer
mb
20260906031605 83 0 0.0 3.0 0.00 0.00 0.00 75 1013.9
20260906030107 83 0 0.0 2.0 0.00 0.00 0.00 74 1013.8
20260906024623 83 0 0.0 2.0 0.00 0.00 0.00 73 1013.8
20260906023106 84 0 0.0 1.0 0.00 0.00 0.00 72 1013.5
20260906021608 84 0 0.0 1.0 0.00 0.00 0.00 72 1013.3
20260906020108 84 0 0.0 1.0 0.00 0.00 0.00 72 1013.2
20260906014605 85 0 0.0 1.0 0.00 0.00 0.00 71 1012.9
20260906013109 85 0 0.0 1.0 0.00 0.00 0.00 70 1012.8
20260906011604 85 0 0.0 1.0 0.00 0.00 0.00 70 1012.8
20260906010132 86 0 0.0 2.0 0.00 0.00 0.00 68 1012.7
20260906004605 87 0 0.0 1.0 0.00 0.00 0.00 66 1012.5
20260906003107 88 0 0.0 2.0 0.00 0.00 0.00 65 1012.5
20260906001611 89 0 0.0 2.0 0.00 0.00 0.00 63 1012.4
20260906000107 90 0 0.0 2.0 0.00 0.00 0.00 62 1012.2
20260905234608 92 93 0.0 2.0 0.00 0.00 0.00 60 1012.4
20260905233115 92 0 0.0 4.0 0.00 0.00 0.00 59 1012.4
20260905231603 93 51 0.0 2.0 0.00 0.00 0.00 59 1012.5
20260905230122 94 68 0.0 4.0 0.00 0.00 0.00 54 1012.4
20260905224606 96 336 0.0 4.0 0.00 0.00 0.00 55 1012.7
20260905223105 98 119 1.0 4.0 0.00 0.00 0.00 54 1012.3
20260905221608 99 0 1.0 8.0 0.00 0.00 0.00 50 1012.1
20260905220105 101 0 1.0 6.0 0.00 0.00 0.00 46 1012.3
20260905214602 104 51 1.0 11.0 0.00 0.00 0.00 41 1012.2
20260905213107 104 247 1.0 7.0 0.00 0.00 0.00 39 1012.2
20260905211603 104 295 3.0 9.0 0.00 0.00 0.00 41 1012.4
20260905210107 104 51 3.0 12.0 0.00 0.00 0.00 40 1012.7
20260905204612 104 298 2.0 7.0 0.00 0.00 0.00 41 1012.6
20260905203107 103 301 2.0 8.0 0.00 0.00 0.00 43 1012.7
20260905201610 105 344 2.0 8.0 0.00 0.00 0.00 40 1012.8
20260905200110 105 0 3.0 11.0 0.00 0.00 0.00 40 1012.9
20260905194605 106 165 3.0 9.0 0.00 0.00 0.00 38 1013.0
20260905193104 104 284 1.0 9.0 0.00 0.00 0.00 38 1013.2
20260905191602 105 47 1.0 8.0 0.00 0.00 0.00 40 1013.5
20260905190104 105 34 2.0 8.0 0.00 0.00 0.00 41 1013.4
20260905184613 104 32 2.0 10.0 0.00 0.00 0.00 42 1013.6
20260905183115 104 63 2.0 11.0 0.00 0.00 0.00 42 1014.0
20260905181603 103 279 1.0 5.0 0.00 0.00 0.00 44 1014.1
20260905180106 103 158 2.0 9.0 0.00 0.00 0.00 48 1014.0
20260905174608 102 338 2.0 7.0 0.00 0.00 0.00 51 1014.1
20260905173108 101 64 1.0 6.0 0.00 0.00 0.00 48 1014.3
20260905171603 100 9 2.0 6.0 0.00 0.00 0.00 51 1014.5
20260905170112 99 334 1.0 7.0 0.00 0.00 0.00 53 1014.6
20260905164608 98 51 2.0 7.0 0.00 0.00 0.00 52 1014.7
20260905163105 98 338 1.0 9.0 0.00 0.00 0.00 51 1014.9
20260905161601 98 265 1.0 4.0 0.00 0.00 0.00 54 1015.0
20260905154606 96 41 1.0 5.0 0.00 0.00 0.00 55 1015.1
20260905153105 94 0 1.0 9.0 0.00 0.00 0.00 58 1015.1
20260905151611 92 38 1.0 9.0 0.00 0.00 0.00 60 1015.0
20260905144603 90 126 0.0 4.0 0.00 0.00 0.00 66 1014.9
20260905143104 88 265 0.0 3.0 0.00 0.00 0.00 67 1015.0
20260905141604 87 282 0.0 4.0 0.00 0.00 0.00 68 1015.0
20260905140128 86 178 1.0 5.0 0.00 0.00 0.00 68 1015.0
20260905134606 86 282 1.0 5.0 0.00 0.00 0.00 69 1014.9
20260905133106 85 38 2.0 8.0 0.00 0.00 0.00 72 1014.8
20260905131634 83 265 1.0 5.0 0.00 0.00 0.00 75 1014.7
20260905130105 80 0 0.0 3.0 0.00 0.00 0.00 81 1014.6
20260905124606 79 137 0.0 2.0 0.00 0.00 0.00 84 1014.5
20260905123110 78 0 0.0 2.0 0.00 0.00 0.00 84 1014.4
20260905121602 78 51 0.0 1.0 0.00 0.00 0.00 84 1014.4
20260905120103 78 0 0.0 2.0 0.00 0.00 0.00 83 1014.2
20260905114604 77 0 0.0 2.0 0.00 0.00 0.00 85 1014.0
20260905113112 76 162 0.0 2.0 0.00 0.00 0.00 87 1013.9
20260905111606 76 0 0.0 1.0 0.00 0.00 0.00 87 1013.9
20260905110104 76 0 0.0 1.0 0.00 0.00 0.00 86 1013.8
20260905104619 76 0 0.0 1.0 0.00 0.00 0.00 87 1013.9
20260905103102 76 0 0.0 1.0 0.00 0.00 0.00 87 1013.9
20260905101612 77 0 0.0 1.0 0.00 0.00 0.00 86 1013.8
20260905100117 77 0 0.0 1.0 0.00 0.00 0.00 86 1013.9
20260905094602 77 0 0.0 1.0 0.00 0.00 0.00 86 1013.9
20260905093103 77 0 0.0 1.0 0.00 0.00 0.00 86 1013.9
20260905091602 77 0 0.0 1.0 0.00 0.00 0.00 86 1013.9
20260905090135 78 0 0.0 2.0 0.00 0.00 0.00 85 1013.9
20260905084617 78 0 0.0 1.0 0.00 0.00 0.00 85 1013.9
20260905083102 78 0 0.0 1.0 0.00 0.00 0.00 84 1014.0
20260905081605 78 0 0.0 1.0 0.00 0.00 0.00 84 1014.1
20260905074600 79 0 0.0 1.0 0.00 0.00 0.00 83 1014.2
20260905073103 79 0 0.0 1.0 0.00 0.00 0.00 82 1014.2
20260905071611 79 0 0.0 1.0 0.00 0.00 0.00 82 1014.3
20260905070105 79 0 0.0 1.0 0.00 0.00 0.00 82 1014.3
20260905064600 79 0 0.0 1.0 0.00 0.00 0.00 81 1014.3
20260905063105 80 0 0.0 1.0 0.00 0.00 0.00 80 1014.4
20260905061603 80 0 0.0 1.0 0.00 0.00 0.00 79 1014.4
20260905060107 80 0 0.0 1.0 0.00 0.00 0.00 79 1014.4
20260905054606 80 0 0.0 2.0 0.00 0.00 0.00 79 1014.4
20260905053105 80 0 0.0 1.0 0.00 0.00 0.00 78 1014.4
20260905051606 81 126 0.0 1.0 0.00 0.00 0.00 78 1014.5
20260905050106 81 0 0.0 1.0 0.00 0.00 0.00 77 1014.3
20260905044606 81 26 0.0 1.0 0.00 0.00 0.00 77 1014.3
20260905043109 81 0 0.0 1.0 0.00 0.00 0.00 77 1014.3
20260905041605 81 0 0.0 1.0 0.00 0.00 0.00 76 1014.2
20260905040106 82 0 0.0 1.0 0.00 0.00 0.00 75 1014.2
20260905034617 82 0 0.0 1.0 0.00 0.00 0.00 75 1014.2
20260905033115 82 0 0.0 2.0 0.00 0.00 0.00 74 1014.3